This demonstration page uses our WeatherBlox Daily Observations layout. Learn more.

36.17497, -115.13722

Hourly Observations for May 6, 2015

Temp ( °F °C ) Dew Point ( °F °C ) Humidity (%) Winds ( mph kmh ) Pressure ( in mb ) Visibility ( mi km ) Precip ( " mm )
12:53 am 00:53 Clear 71 21.7 30 -1.1 22 22 E 18 30 29.75 1007 10 16.0934 0 0
1:53 am 01:53 Clear 69 20.6 42 5.6 38 38 E 17 28 29.74 1007 10 16.0934 0 0
2:53 am 02:53 Clear 68 20 41 5 38 38 ENE 10 17 29.74 1007 10 16.0934 0 0
3:53 am 03:53 Clear 67 19.4 41 5 39 39 E 10 17 29.75 1007 10 16.0934 0 0
4:53 am 04:53 Clear 64 17.8 41 5 43 43 E 9 15 29.75 1007 10 16.0934 0 0
5:53 am 05:53 Sunny 65 18.3 40 4.4 40 40 E 6 9 29.74 1007 10 16.0934 0 0
6:53 am 06:53 Sunny 65 18.3 38 3.3 37 37 E 8 13 29.75 1008 10 16.0934 0 0
7:53 am 07:53 Sunny 67 19.4 39 3.9 36 36 ESE 9 15 29.75 1008 10 16.0934 0 0
8:53 am 08:53 Sunny 70 21.1 41 5 35 35 SE 8 13 29.75 1008 10 16.0934 0 0
9:53 am 09:53 Sunny 72 22.2 39 3.9 30 30 S 8 13 29.74 1007 10 16.0934 0 0
10:53 am 10:53 Sunny 75 23.9 36 2.2 24 24 SE 10 17 29.73 1007 10 16.0934 0 0
11:53 am 11:53 Sunny 77 25 33 0.6 20 20 SSE 10 17 29.7 1006 10 16.0934 0 0
12:53 pm 12:53 Sunny 80 26.7 31 -0.6 17 17 S 12 19 29.66 1005 10 16.0934 0 0
1:53 pm 13:53 Sunny 82 27.8 24 -4.4 12 12 S 16 26 29.63 1003 10 16.0934 0 0
2:53 pm 14:53 Sunny 83 28.3 15 -9.4 8 8 SW 16 26 29.6 1002 10 16.0934 0 0
3:53 pm 15:53 Sunny 85 29.4 21 -6.1 9 9 WSW 21 33 29.56 1001 10 16.0934 0 0
4:53 pm 16:53 Sunny 83 28.3 21 -6.1 10 10 SW 20 31 29.57 1002 10 16.0934 0 0
5:53 pm 17:53 Sunny 82 27.8 18 -7.8 9 9 SW 15 24 29.58 1002 10 16.0934 0 0
6:53 pm 18:53 Sunny 80 26.7 16 -8.9 9 9 SW 15 24 29.57 1002 10 16.0934 0 0
7:53 pm 19:53 Clear 78 25.6 20 -6.7 11 11 SW 13 20 29.58 1002 10 16.0934 0 0
8:53 pm 20:53 Clear 77 25 19 -7.2 11 11 SSW 13 20 29.59 1002 10 16.0934 0 0
9:53 pm 21:53 Clear 75 23.9 20 -6.7 12 12 SSW 20 31 29.61 1003 10 16.0934 0 0
10:53 pm 22:53 Clear 73 22.8 23 -5 15 15 SSW 17 28 29.62 1003 10 16.0934 0 0
11:53 pm 23:53 Clear 71 21.7 26 -3.3 19 19 SSW 13 20 29.63 1004 10 16.0934 0 0

Powered by AerisWeather